Flag for Marshall Islands Weather past 2 weeks in Kwajalein, Marshall Islands

Now
86 °F

Scattered clouds.


Feels Like: 95 °F
Forecast: 82 / 85 °F
Wind: 21 mph from East

Location: Kwajalein / Bucholz

Current Time: Mar 27, 2015 at 2:47:40 PM

Latest Report: Mar 27, 2015 at 2:20 PM


Visibility: 10 mi

Pressure: 29.82 "Hg

Humidity: 68%

Dew point: 74 °F

Location of KwajaleinLocation

Historic Weather in Kwajalein — Graph

°F

Kwajalein temperature yesterday

Maximum temperature yesterday: 85 °F (at 3:00 PM)
Minimum temperature yesterday: 80 °F (at 7:00 PM)
Average temperature yesterday: 82 °F

Past Weeks' High & Low Weather Summary

 TemperatureHumidityPressure
High89 °F (Mar 15, 2:20 PM)94% (Mar 12, 11:20 PM)29.95 "Hg (Mar 12, 11:20 PM)
Low76 °F (Mar 27, 7:00 AM)65% (Mar 23, 2:00 PM)29.46 "Hg (Mar 12, 3:00 PM)
Average82 °F78%29.84 "Hg
* Reported Mar 12 2:00 PM — Mar 27 2:00 PM, Kwajalein, Weather by CustomWeather, © 2015

Note: Actual official high and low records may vary slightly from our data, if they occured in-between our weather recording intervals... More about our weather records

Advertising

Kwajalein weather history for previous 24 hours

 ConditionsComfort  
Time TempWeatherWind HumidityBarometerVisibility
2:00 PM
Fri, Mar 27
86 °FScattered clouds.22 mph69%29.83 "Hg10 mi
1:40 PM86 °FScattered clouds.20 mph70%29.84 "Hg10 mi
1:20 PM85 °FScattered clouds.21 mph73%29.85 "Hg7 mi
1:00 PM84 °FScattered clouds.21 mph75%29.86 "Hg10 mi
12:20 PM83 °FBroken clouds.22 mph79%29.89 "Hg10 mi
12:00 PM82 °FCloudy.17 mph81%29.91 "Hg7 mi
11:40 AM82 °FRain. Broken clouds.20 mph81%29.91 "Hg7 mi
11:20 AM82 °FBroken clouds.20 mph82%29.92 "Hg7 mi
11:00 AM81 °FLight rain. Broken clouds.18 mph85%29.92 "Hg7 mi
10:40 AM80 °FBroken clouds.21 mph88%29.93 "Hg7 mi
10:20 AM78 °FMore clouds than sun.18 mph91%29.93 "Hg7 mi
10:00 AM78 °FLight rain. Broken clouds.23 mph92%29.93 "Hg3 mi
9:20 AM77 °FRain. Broken clouds.13 mph92%29.95 "Hg2 mi
9:00 AM77 °FLight rain. More clouds than sun.15 mph92%29.94 "Hg3 mi
8:40 AM77 °FHeavy rain. Cloudy.20 mph92%29.93 "Hg5 mi
8:20 AM77 °FLight rain. Cloudy.16 mph93%29.93 "Hg5 mi
8:00 AM76 °FRain. Cloudy.13 mph92%29.91 "Hg5 mi
7:40 AM76 °FLight rain. Cloudy.18 mph93%29.91 "Hg5 mi
7:20 AM76 °FRain. Mostly cloudy.20 mph92%29.91 "Hg5 mi
7:00 AM76 °FLight rain. Cloudy.7 mph91%29.90 "Hg7 mi
6:20 AM76 °FHeavy rain. Partly cloudy.12 mph91%29.88 "Hg4 mi
6:00 AM76 °FRain. Passing clouds.14 mph92%29.88 "Hg5 mi
5:40 AM76 °FLight rain. Passing clouds.14 mph92%29.88 "Hg4 mi
5:20 AM76 °FHeavy rain. Passing clouds.26 mph92%29.88 "Hg4 mi
5:00 AM77 °FPassing clouds.3 mph93%29.86 "Hg10 mi
4:20 AM77 °FHeavy rain. Partly cloudy.17 mph91%29.87 "Hg2 mi
4:00 AM78 °FHeavy rain. Overcast.17 mph91%29.86 "Hg2 mi
3:20 AM77 °FRain. Partly cloudy.8 mph91%29.87 "Hg7 mi
3:00 AM78 °FOvercast.15 mph88%29.87 "Hg10 mi
2:20 AM79 °FPartly cloudy.16 mph81%29.88 "Hg10 mi
2:00 AM80 °FLight rain. Overcast.16 mph79%29.89 "Hg5 mi
1:20 AM82 °FPartly cloudy.20 mph75%29.89 "Hg10 mi
1:00 AM82 °FOvercast.22 mph76%29.89 "Hg10 mi
12:20 AM82 °FMostly cloudy.21 mph76%29.90 "Hg10 mi
12:00 AM82 °FMostly cloudy.21 mph75%29.90 "Hg10 mi
11:20 PM
Thu, Mar 26
82 °FMostly cloudy.16 mph75%29.91 "Hg10 mi
11:00 PM82 °FPartly cloudy.20 mph75%29.91 "Hg10 mi
10:40 PM82 °FPassing clouds.18 mph75%29.91 "Hg10 mi
10:20 PM82 °FPassing clouds.21 mph75%29.91 "Hg10 mi
10:00 PM82 °FMostly cloudy.21 mph75%29.91 "Hg10 mi
9:40 PM82 °FPassing clouds.22 mph76%29.91 "Hg10 mi
9:20 PM82 °FPartly cloudy.21 mph76%29.89 "Hg10 mi
9:00 PM82 °FPassing clouds.18 mph77%29.88 "Hg10 mi
8:40 PM82 °FPassing clouds.23 mph78%29.88 "Hg10 mi
8:20 PM81 °FPassing clouds.20 mph79%29.87 "Hg10 mi
8:00 PM81 °FPartly cloudy.18 mph79%29.87 "Hg10 mi
7:40 PM81 °FPassing clouds.20 mph79%29.86 "Hg10 mi
7:20 PM80 °FPassing clouds.18 mph80%29.86 "Hg10 mi
7:00 PM80 °FOvercast.18 mph80%29.85 "Hg10 mi
6:40 PM80 °FRain. Broken clouds.28 mph80%29.85 "Hg4 mi
6:20 PM81 °FScattered clouds.15 mph78%29.84 "Hg10 mi
6:00 PM81 °FBroken clouds.21 mph78%29.84 "Hg10 mi
5:40 PM82 °FBroken clouds.16 mph76%29.83 "Hg10 mi
5:20 PM82 °FBroken clouds.25 mph75%29.83 "Hg7 mi
5:00 PM83 °FMore clouds than sun.20 mph73%29.83 "Hg10 mi
4:40 PM83 °FMore clouds than sun.23 mph73%29.83 "Hg10 mi
4:20 PM83 °FCloudy.23 mph73%29.82 "Hg10 mi
4:00 PM84 °FBroken clouds.16 mph71%29.82 "Hg7 mi
3:40 PM85 °FPartly sunny.17 mph70%29.82 "Hg10 mi
3:00 PM85 °FBroken clouds.21 mph72%29.82 "Hg10 mi
2:20 PM83 °FCloudy.20 mph77%29.84 "Hg10 mi
2:00 PM83 °FCloudy.22 mph79%29.85 "Hg10 mi
Weather by CustomWeather, © 2015

See weather overviewHow to use our weather pages